Flag for Norway Weather past 2 weeks in Hammerfest, Norway

Now
57 °F

Sunny.


Feels Like: 55 °F
Forecast: 46 / 49 °F
Wind: 9 mph from Northeast

Location: Hammerfest

Current Time: Jul 31, 2015 at 8:24:48 PM

Latest Report: Jul 31, 2015 at 7:50 PM


Visibility: 10 mi

Pressure: 29.68 "Hg

Humidity: 59%

Dew point: 43 °F

Location of HammerfestLocation

Historic Weather in Hammerfest — Graph

°F

Hammerfest temperature yesterday

Maximum temperature yesterday: 68 °F (at 12:50 PM)
Minimum temperature yesterday: 57 °F (at 12:50 AM)
Average temperature yesterday: 62 °F

Past Weeks' High & Low Weather Summary

 TemperatureHumidityPressure
High68 °F (Jul 28, 2:50 PM)100% (Jul 25, 11:50 PM)29.98 "Hg (Jul 25, 11:50 PM)
Low43 °F (Jul 22, 10:50 PM)40% (Jul 30, 7:50 PM)29.50 "Hg (Jul 19, 7:50 AM)
Average53 °F74%29.72 "Hg
* Reported Jul 16 6:50 PM — Jul 31 6:50 PM, Hammerfest, Weather by CustomWeather, © 2015

Note: Actual official high and low records may vary slightly from our data, if they occured in-between our weather recording intervals... More about our weather records

Advertising

Hammerfest weather history for previous 24 hours

 ConditionsComfort  
Time TempWeatherWind HumidityBarometerVisibility
6:50 PM
Fri, Jul 31
59 °FSunny.13 mph55%29.65 "Hg10 mi
5:50 PM61 °FSunny.13 mph52%29.65 "Hg10 mi
4:50 PM61 °FSunny.15 mph55%29.65 "Hg10 mi
3:50 PM63 °FSunny.13 mph52%29.65 "Hg10 mi
2:50 PM63 °FSunny.12 mph56%29.62 "Hg10 mi
1:50 PM63 °FSunny.15 mph52%29.62 "Hg10 mi
12:50 PM64 °FSunny.13 mph46%29.62 "Hg10 mi
11:50 AM64 °FSunny.12 mph52%29.62 "Hg10 mi
10:50 AM63 °FSunny.10 mph56%29.62 "Hg10 mi
9:50 AM61 °FSunny.12 mph55%29.62 "Hg10 mi
8:50 AM61 °FSunny.5 mph55%29.62 "Hg10 mi
7:50 AM59 °FSunny.7 mph59%29.62 "Hg10 mi
6:50 AM59 °FPassing clouds.8 mph59%29.62 "HgN/A
5:50 AM57 °FPassing clouds.5 mph63%29.62 "HgN/A
4:50 AM54 °FSunny.8 mph72%29.62 "Hg10 mi
3:50 AM50 °FSunny.6 mph76%29.62 "Hg10 mi
2:50 AM54 °FSunny.7 mph67%29.62 "Hg10 mi
1:50 AM55 °FClear.9 mph63%29.62 "Hg10 mi
12:50 AM55 °FSunny.8 mph63%29.62 "Hg10 mi
11:50 PM
Thu, Jul 30
57 °FSunny.15 mph59%29.62 "Hg10 mi
10:50 PM59 °FSunny.13 mph55%29.62 "Hg10 mi
9:50 PM61 °FSunny.15 mph48%29.59 "Hg10 mi
8:50 PM63 °FSunny.9 mph45%29.62 "Hg10 mi
Weather by CustomWeather, © 2015

See weather overviewHow to use our weather pages